Wind_Speed
71 72 73 74 75 76 78 79 80 81 83 84 86 87 88 90 91 92 93 95 96 98 99 101 103 105 106 108 109 109 109 108 107 105 103 101 99 97 94 91 88 85 81 78 75 72 69 67 64 61 58 56 53 51 49 47 45 44 42 41 40 39 39 39 38 38 38 37 37 37 36 36 36 36 36 37 37 38 39 40 41 42 43 44 45 46
73 74 75 76 77 78 80 81 82 83 85 86 88 89 90 92 93 94 96 97 99 100 102 104 106 107 108 109 108 107 105 103 101 99 96 94 91 88 85 82 79 76 73 70 66 64 61 58 55 53 50 48 46 44 42 40 39 38 37 37 36 36 36 35 35 34 34 33 33 33 33 33 34 34 35 36 37 39 40 41 42 43 44 45 46 47
74 75 76 78 79 80 81 83 85 86 87 88 90 91 92 94 95 96 98 100 102 103 105 107 108 108 108 106 104 102 99 96 93 91 88 85 82 79 76 73 70 67 64 61 58 55 52 50 47 45 43 41 39 38 37 36 35 35 34 34 33 33 32 31 31 30 30 30 31 31 32 33 34 35 36 37 38 39 40 41 42 43 44 45 46 47
76 77 78 80 81 82 83 85 86 88 89 91 92 93 94 96 97 99 100 102 104 106 107 108 107 106 103 101 97 94 91 88 85 82 79 77 74 71 68 65 62 58 56 53 50 48 45 43 41 39 38 37 36 35 34 34 33 33 32 31 30 29 29 28 28 28 29 30 31 32 33 34 35 36 37 37 38 39 40 41 42 43 44 45 46 47
78 79 80 82 83 84 86 87 88 90 91 93 94 95 97 98 100 101 103 105 106 107 107 105 103 100 96 93 89 85 82 79 76 74 71 69 66 63 60 57 53 51 48 46 44 42 40 38 37 36 35 35 34 34 33 32 31 30 29 28 27 27 27 27 28 29 30 31 32 33 33 34 35 36 37 37 38 39 40 41 42 43 44 45 46 46
80 81 83 84 85 87 88 89 91 92 93 95 96 97 99 100 102 104 105 106 106 105 103 100 96 92 88 84 80 77 74 71 68 66 64 61 58 55 52 49 47 44 42 40 39 38 37 36 35 35 35 34 33 32 31 30 29 28 27 26 26 26 27 28 29 30 31 32 32 33 34 34 35 36 36 37 38 39 40 41 42 42 43 44 44 45
82 83 85 86 87 89 90 91 93 94 95 97 99 100 102 103 105 106 106 105 103 100 96 92 88 83 79 75 72 69 66 64 61 59 57 54 51 48 46 43 41 40 39 38 37 36 36 36 35 35 34 33 32 31 29 28 27 26 26 26 26 27 28 29 30 31 32 33 33 33 34 34 35 35 36 37 38 38 39 39 40 40 41 42 43 44
84 86 87 88 89 91 92 93 95 96 98 100 101 103 104 105 106 106 104 101 97 93 88 83 79 74 70 66 63 61 59 57 55 53 50 48 45 43 41 40 39 38 37 37 36 36 36 36 35 34 33 32 30 29 28 27 26 26 26 26 27 28 29 31 32 32 33 33 33 33 33 34 35 35 36 36 36 36 37 37 38 39 40 41 43 44
86 87 89 90 91 92 94 96 97 99 100 102 104 105 105 105 105 103 99 94 89 83 78 74 70 66 62 59 56 54 53 51 50 47 45 43 41 40 39 38 37 37 37 37 37 36 36 35 34 33 32 31 29 28 27 26 26 26 26 27 28 30 31 32 32 33 33 33 33 33 34 34 35 35 35 35 35 35 36 37 38 40 41 43 44 46
88 89 90 92 93 94 95 97 100 102 103 105 106 106 105 103 100 96 92 86 80 74 68 64 60 58 56 54 51 49 47 46 45 44 42 40 39 38 38 37 37 37 37 37 37 36 36 35 34 32 31 30 29 28 27 27 27 27 28 29 30 31 32 32 32 32 32 33 33 34 34 34 34 34 34 34 35 35 37 38 40 42 44 45 47 48
90 91 92 93 95 97 98 100 102 104 106 106 106 106 104 99 93 87 82 77 72 66 60 56 53 50 49 48 47 46 44 42 42 41 40 39 39 38 38 37 37 37 37 37 36 36 35 34 33 32 31 30 30 29 29 28 28 29 29 30 31 31 32 32 32 32 32 33 33 34 34 34 34 34 34 35 36 37 39 41 42 44 46 48 49 50
91 93 94 96 97 99 101 103 105 106 106 105 103 101 98 93 86 78 72 67 62 57 53 50 48 46 44 44 43 43 42 40 40 39 39 40 39 39 38 38 37 37 37 37 36 36 35 34 33 32 32 31 31 31 30 30 30 30 30 31 31 32 32 32 32 32 33 33 34 34 34 34 34 34 35 36 37 39 40 42 44 46 48 49 50 50
93 95 96 98 100 102 104 105 106 106 105 102 98 93 88 83 77 70 63 58 53 49 46 44 44 44 43 42 41 41 40 39 39 39 39 39 39 39 38 37 37 37 37 37 36 36 36 35 34 33 33 33 32 32 32 31 31 30 31 31 32 32 32 32 32 32 33 33 34 34 34 34 34 35 35 36 38 40 42 44 45 47 48 49 48 47
95 97 99 101 103 105 106 106 105 103 100 96 91 85 79 74 67 61 55 51 47 44 42 41 41 41 41 41 41 40 39 38 38 38 38 39 39 38 38 37 36 36 36 36 36 36 36 35 35 34 34 34 34 33 33 32 31 31 31 32 32 32 32 32 32 33 33 34 34 34 35 34 35 35 36 37 39 41 43 44 46 47 47 46 45 43
98 100 102 104 106 106 106 104 102 98 94 89 83 76 70 64 59 53 48 45 43 42 40 40 39 40 40 41 41 40 40 38 37 37 37 38 38 38 37 37 36 36 36 36 36 36 36 35 35 35 35 35 35 34 33 32 31 31 31 32 32 32 32 32 33 33 34 34 35 35 35 34 35 35 37 38 39 41 43 44 45 45 44 42 40 38
101 103 105 106 106 106 103 100 95 90 85 80 74 67 61 55 51 47 44 42 40 40 39 39 39 39 40 41 41 41 40 39 37 37 37 37 37 37 37 36 36 35 35 36 36 36 36 36 36 35 35 35 35 34 33 32 31 31 31 32 32 32 32 32 33 34 34 35 35 34 34 34 35 36 37 38 39 41 42 42 42 41 39 37 35 33
103 105 106 106 104 102 98 93 88 82 76 70 64 58 53 49 45 43 41 40 40 40 39 39 38 38 39 40 41 41 40 39 38 37 36 36 36 36 37 36 36 35 35 36 36 36 36 36 36 36 36 36 35 34 33 32 31 31 31 32 32 32 32 33 34 34 35 35 34 34 34 34 35 35 36 37 39 39 39 39 38 36 33 31 30 29
105 106 105 103 100 96 90 85 79 73 68 62 56 51 47 44 42 41 40 40 40 40 40 40 39 38 38 39 40 41 40 39 38 37 36 35 35 36 36 36 36 35 35 35 36 36 36 36 36 36 36 36 36 34 33 32 31 31 31 32 32 32 33 33 34 34 35 35 34 34 34 34 34 35 36 36 37 37 36 34 32 30 28 27 26 26
105 104 101 97 93 88 82 75 69 63 59 54 50 46 43 42 41 40 40 40 41 40 40 40 40 39 39 39 39 40 40 39 38 36 35 34 34 35 35 36 35 35 35 35 36 36 36 36 36 37 37 36 36 34 33 32 31 31 32 32 32 33 33 34 34 34 35 34 34 34 33 34 34 34 35 35 35 34 32 30 27 25 24 22 22 22
103 100 95 90 84 79 73 67 61 55 51 48 45 42 41 40 40 41 41 41 41 41 41 40 40 39 39 39 39 40 40 39 38 36 35 34 33 34 35 35 35 35 35 35 36 36 36 36 37 37 37 37 36 35 33 32 31 32 32 32 33 33 33 34 34 34 34 34 34 33 33 33 33 33 33 33 32 31 29 26 24 22 21 20 19 19
98 93 88 82 75 68 63 59 54 50 46 44 42 41 41 40 41 41 42 42 42 42 41 41 40 39 39 39 39 39 40 39 38 36 34 33 33 33 34 35 34 34 34 35 36 36 37 37 37 38 38 38 37 35 34 33 32 32 33 33 33 33 33 34 34 34 34 34 33 33 33 33 33 32 32 31 30 28 26 24 22 21 20 19 19 19
90 85 80 73 66 60 55 51 48 46 44 42 42 42 42 42 42 43 43 43 43 42 41 41 40 39 39 39 39 39 40 40 38 37 34 33 32 33 34 34 34 34 34 35 35 36 37 37 38 38 38 38 37 36 35 34 33 33 33 33 33 33 33 34 34 34 34 34 33 33 32 32 32 31 30 29 28 26 25 23 22 21 21 21 21 21
82 76 70 64 58 53 49 46 45 43 43 43 43 43 43 43 43 44 44 44 43 43 42 41 40 39 39 39 39 39 40 40 39 37 35 33 32 33 34 34 34 34 34 35 35 36 37 37 38 38 39 38 38 37 35 34 34 34 33 33 33 33 33 33 34 34 34 34 33 33 32 31 31 30 29 28 27 25 24 23 23 22 22 22 23 23
73 67 61 56 51 48 46 44 44 44 44 44 44 45 45 45 45 45 45 45 44 43 42 41 40 39 39 38 39 39 40 40 40 38 36 34 33 33 34 35 34 34 34 35 36 36 37 37 38 39 39 39 38 37 36 35 35 34 34 33 33 33 33 33 33 34 34 33 33 32 31 31 30 29 28 27 26 25 24 24 24 24 24 24 25 25
64 58 54 50 48 46 45 45 45 45 45 46 46 46 46 46 46 46 45 45 45 44 43 41 40 39 39 38 39 39 40 41 40 39 37 35 34 34 35 35 35 35 35 35 36 37 37 37 38 39 39 39 39 38 37 36 35 35 34 34 34 33 33 33 33 33 33 33 32 32 31 30 29 28 28 27 26 25 25 25 25 25 26 26 26 27
56 52 49 47 46 46 46 46 46 47 47 47 47 47 46 46 46 45 45 45 44 44 43 41 40 39 39 38 38 39 40 41 41 40 38 37 35 35 35 36 36 36 35 35 36 37 37 38 38 39 39 39 39 39 38 37 36 36 35 35 34 34 33 33 33 33 33 32 32 31 31 30 29 28 27 27 26 26 26 26 27 27 28 28 28 28
51 49 48 47 47 47 47 47 47 48 48 48 47 47 47 46 45 45 44 44 44 43 42 41 40 39 38 38 38 38 39 40 41 40 39 38 37 36 36 36 36 36 36 35 36 37 37 38 38 39 39 39 39 39 39 38 37 37 36 35 35 34 34 33 33 33 32 32 32 31 30 30 29 28 27 27 27 27 27 28 28 29 29 29 29 29
49 49 48 48 48 48 48 48 48 48 48 48 48 47 47 46 45 44 44 43 43 42 42 41 40 39 38 37 37 38 39 40 40 40 39 38 37 36 36 36 37 36 36 35 35 36 37 38 39 39 39 39 39 39 39 39 38 37 37 36 35 34 34 33 33 32 32 32 31 31 30 29 28 28 27 27 27 28 28 29 30 30 30 30 30 30
49 49 49 49 49 48 48 48 48 48 47 47 47 47 46 45 44 44 43 43 42 42 41 40 40 39 38 37 36 36 38 39 40 40 39 38 37 36 36 36 37 37 36 35 34 35 36 38 38 39 38 38 39 39 39 39 39 38 37 36 35 35 34 34 33 32 32 31 31 30 30 29 28 28 28 28 28 28 29 30 31 31 31 31 31 31
49 49 49 49 48 48 48 47 47 47 47 47 46 46 45 44 44 43 43 42 41 41 40 39 39 38 37 36 35 35 36 37 38 39 38 37 36 36 36 35 36 36 36 35 33 32 33 35 37 38 38 38 38 39 39 39 39 38 37 36 35 35 34 34 33 32 32 31 31 30 30 29 28 28 28 28 28 29 30 31 31 31 31 31 31 31
48 48 48 48 47 47 47 46 46 46 46 46 45 45 44 43 43 42 41 41 40 39 39 38 37 37 36 36 35 34 35 36 37 37 37 36 35 35 35 34 35 35 35 35 33 31 30 32 34 36 37 38 38 38 39 39 39 38 37 36 35 35 34 34 33 32 32 31 31 30 30 29 28 28 28 28 28 29 30 31 31 31 31 31 31 31
47 47 46 46 46 46 46 46 45 45 45 44 44 43 43 42 41 40 40 39 38 38 37 36 36 36 35 35 35 34 35 36 36 36 36 35 34 34 34 33 33 33 34 34 33 32 30 29 31 33 35 36 37 38 38 38 38 37 37 35 35 34 34 33 33 32 32 31 31 30 30 29 28 28 28 28 29 29 30 31 31 31 31 31 31 30
45 45 45 45 45 45 45 45 44 44 44 43 43 42 41 40 39 38 37 37 36 36 35 35 35 34 34 34 34 34 35 35 36 36 35 34 34 33 33 32 32 32 32 32 32 32 30 29 29 30 32 34 35 36 37 37 37 37 36 35 34 33 33 33 32 32 31 31 31 30 30 29 29 28 28 28 29 30 30 31 31 32 32 32 31 29
44 44 44 44 44 44 44 44 43 43 42 42 41 40 39 38 37 36 35 35 34 34 34 34 34 34 34 33 33 33 34 34 35 35 35 34 34 33 32 32 32 32 32 31 31 31 30 29 28 28 29 31 33 34 35 36 36 35 35 34 33 32 32 32 31 31 31 31 31 30 30 30 29 29 28 29 29 30 31 31 31 32 32 31 30 29
43 43 43 43 43 43 43 42 42 42 41 40 39 37 36 35 34 33 33 33 33 33 33 33 33 34 34 33 33 33 33 33 34 34 35 34 34 33 32 32 32 32 32 31 31 30 29 28 28 27 27 28 30 32 34 34 34 34 34 33 32 31 31 31 31 30 30 30 30 30 30 30 29 29 29 29 30 31 31 31 32 32 32 31 30 29
42 42 42 42 42 42 41 41 40 40 39 38 36 35 34 33 32 32 31 31 32 32 32 33 33 33 34 33 33 33 32 33 33 34 34 34 34 33 33 32 32 32 32 32 31 30 29 28 27 27 26 26 27 29 31 32 33 33 32 32 31 30 30 30 30 30 30 30 30 29 29 29 29 29 29 29 30 31 31 31 31 31 31 31 30 30
42 42 41 41 41 40 40 39 39 37 36 35 34 32 32 31 31 30 31 31 31 32 32 33 33 33 34 34 33 33 33 33 33 33 34 34 34 34 33 33 32 33 33 32 32 30 29 28 27 26 25 25 25 26 27 29 31 31 31 30 30 29 29 29 29 29 29 29 29 28 28 28 28 28 28 29 30 31 31 31 31 31 31 31 31 31
41 41 41 40 40 39 38 37 36 35 34 33 32 31 30 30 30 30 30 31 32 32 32 33 33 33 34 34 34 34 34 33 33 34 34 34 34 34 33 33 33 33 33 33 32 31 30 29 27 26 24 24 23 24 25 27 28 28 29 29 28 28 28 29 29 29 28 28 27 26 26 26 26 27 28 29 29 30 30 30 30 30 31 31 31 32
40 40 39 39 38 38 37 36 35 33 32 31 30 30 29 29 30 30 31 31 32 32 32 32 33 33 34 34 34 34 34 34 34 34 34 34 34 34 34 33 33 33 33 33 33 32 31 30 28 26 25 23 22 22 23 24 25 26 26 26 27 27 28 28 28 28 27 26 25 24 23 24 24 25 27 28 28 29 29 30 30 30 30 31 31 32
39 39 38 38 37 36 36 34 33 32 31 30 30 29 29 30 30 31 31 32 32 32 32 32 33 33 34 34 35 35 35 35 35 35 35 34 34 34 34 34 33 33 33 33 32 32 31 30 28 27 25 23 21 20 20 22 23 24 24 24 24 25 27 27 27 27 25 24 22 21 21 22 23 25 26 27 28 28 29 29 29 30 30 31 32 32
38 38 37 37 36 36 35 34 33 32 31 31 30 30 30 31 31 31 32 32 33 33 33 33 33 33 34 34 35 35 36 36 36 35 35 35 34 34 34 34 34 34 33 33 32 32 31 30 28 26 24 22 20 18 18 20 21 22 22 22 22 23 25 25 25 24 23 21 20 20 20 21 23 24 26 27 27 28 28 29 29 30 31 32 32 33
37 37 36 36 36 35 34 34 33 33 32 32 32 32 32 32 32 32 32 33 33 33 33 33 33 33 33 34 35 35 36 36 36 36 35 35 35 34 34 34 34 34 34 33 32 31 30 29 28 26 23 21 18 17 16 18 19 20 20 20 20 21 22 23 23 22 20 20 19 20 21 22 23 24 25 26 27 28 28 29 29 30 31 32 33 32
36 36 36 35 35 35 34 34 34 33 33 33 33 33 33 33 33 33 33 33 33 33 33 33 33 32 33 33 34 34 35 36 36 36 35 35 35 34 34 34 34 34 34 33 32 31 30 28 27 25 22 19 17 15 15 15 17 18 19 19 19 19 19 20 20 20 19 19 20 21 22 23 24 25 25 26 26 27 28 29 30 31 32 32 31 30
35 35 35 35 35 35 34 34 34 34 34 34 35 35 35 35 34 34 34 34 34 33 33 33 33 32 32 32 32 33 34 35 35 36 35 35 35 34 34 34 34 34 34 33 32 31 29 27 25 23 21 18 16 14 13 14 15 16 17 17 17 17 16 17 17 18 18 19 20 22 23 23 24 24 25 25 26 27 28 29 30 31 31 30 29 27
35 34 34 34 34 34 34 34 34 35 35 35 35 35 36 35 35 35 35 34 34 34 33 33 33 33 32 32 32 32 32 33 34 34 35 35 35 34 34 34 34 34 33 33 32 31 29 27 24 21 19 16 14 13 13 13 14 15 15 16 15 15 15 15 16 16 17 19 21 22 23 24 24 24 24 24 25 26 28 29 30 30 29 28 26 25
34 34 34 34 34 34 34 34 34 35 35 35 35 36 36 36 36 35 35 35 34 34 34 33 33 33 32 32 32 31 31 32 32 33 33 33 33 33 33 33 33 33 33 32 31 30 28 26 23 20 16 14 13 12 12 13 13 13 14 14 14 14 14 14 15 16 17 19 20 22 23 23 24 24 23 24 24 26 27 28 28 27 26 25 24 24
33 33 33 33 34 34 34 34 34 35 35 35 35 35 36 36 35 35 35 34 34 34 34 33 33 33 32 32 32 31 31 31 31 31 31 31 31 32 32 32 32 32 31 31 30 29 27 25 22 18 15 12 11 10 11 12 12 12 12 12 13 13 14 15 16 17 18 19 21 22 22 23 23 22 22 22 23 24 25 25 24 24 23 23 23 23
33 33 33 33 34 34 34 34 34 34 35 35 35 35 35 35 35 35 35 34 34 34 33 33 33 32 32 32 32 31 31 31 30 30 30 29 29 29 30 30 30 30 29 28 27 27 25 24 21 17 14 11 9 8 9 10 11 11 11 12 12 13 14 15 16 18 19 20 21 22 22 22 21 20 20 20 20 21 21 22 22 22 22 22 22 22
33 33 33 33 34 34 34 34 35 35 35 35 35 35 35 35 35 35 35 34 34 33 33 33 32 32 32 31 31 31 31 30 30 29 29 28 28 28 28 28 28 27 26 26 25 24 23 22 20 16 13 10 8 7 7 8 10 11 11 11 12 13 14 15 17 18 20 20 21 21 21 20 19 18 17 17 17 17 18 19 20 21 21 21 21 21
33 34 34 34 34 35 35 35 36 36 36 36 36 36 36 36 36 35 35 34 34 33 33 32 32 31 31 31 30 30 30 29 29 28 28 27 27 27 26 26 26 25 23 22 22 21 21 21 19 16 12 10 8 6 5 7 8 10 11 12 13 13 15 16 17 18 19 20 20 19 18 18 17 16 16 16 16 16 17 18 19 20 20 20 20 20
34 35 35 35 35 36 36 36 37 37 37 37 37 37 36 36 36 35 35 34 33 33 32 32 31 31 30 30 29 29 29 28 28 27 26 26 26 26 26 25 24 23 21 19 19 18 18 19 19 18 15 11 9 7 5 5 7 9 10 12 13 14 15 16 17 18 18 18 17 17 16 16 15 15 16 16 16 16 16 17 18 18 19 19 19 19
Wind_Direction
303 303 303 303 303 303 303 303 303 304 304 304 304 304 304 303 303 303 303 303 303 303 303 302 302 302 302 302 301 301 300 300 299 298 298 297 296 296 295 295 294 294 293 293 293 292 291 290 289 288 287 286 285 284 283 282 281 279 278 277 276 275 274 273 273 272 272 271 271 271 270 270 269 269 268 268 267 266 266 265 265 265 264 264 264 264
304 304 304 304 304 304 304 304 304 304 304 304 304 304 304 304 304 304 304 304 303 303 303 303 303 303 302 302 302 301 300 300 299 298 297 297 296 296 295 295 295 294 294 294 293 292 291 290 289 288 287 286 285 284 283 281 280 279 277 276 275 274 273 273 272 272 271 271 271 271 270 270 269 269 268 268 268 267 267 266 266 266 266 266 266 266
304 304 304 304 305 305 305 305 305 305 305 305 305 305 305 305 304 304 304 304 304 304 304 304 304 303 303 302 301 301 300 299 298 297 297 296 296 296 296 295 295 295 295 294 293 292 292 291 290 289 288 287 285 284 282 281 280 278 277 276 275 274 273 273 273 272 272 272 272 272 272 271 271 270 270 270 270 270 270 270 270 270 270 270 270 270
305 305 305 305 306 306 306 306 306 306 306 306 305 305 305 305 305 305 305 305 305 305 304 304 304 303 303 302 301 300 299 298 298 297 297 296 296 296 296 296 296 296 295 294 294 293 292 292 291 290 288 287 286 284 283 281 280 278 277 276 275 274 274 274 274 274 274 274 274 274 273 273 273 273 273 273 273 273 274 274 274 274 274 274 274 274
306 306 306 306 307 307 307 307 306 306 306 306 306 306 306 306 305 305 305 305 305 305 305 304 304 303 302 301 300 299 298 298 297 297 297 297 297 297 297 297 297 296 296 295 295 294 294 293 292 291 289 288 286 285 283 282 280 278 277 276 276 276 276 277 277 277 276 276 275 275 274 274 274 274 274 275 275 275 275 275 275 275 275 275 275 275
307 307 307 307 307 307 307 307 307 307 307 306 306 306 306 306 306 306 306 306 306 305 305 304 303 302 301 300 299 299 298 297 297 297 297 298 298 298 298 298 298 297 297 296 296 295 295 294 293 291 290 288 287 285 284 282 280 279 278 277 278 279 279 279 279 278 277 276 275 275 274 274 274 274 274 274 274 274 274 273 273 273 274 274 274 274
308 308 308 308 308 308 308 308 307 307 307 307 307 307 306 306 306 306 306 306 306 305 305 304 303 302 300 300 299 298 298 298 298 298 298 299 299 299 299 299 299 298 298 297 297 296 295 294 293 292 290 289 287 286 283 281 280 279 279 280 281 281 282 281 280 278 277 276 275 275 274 274 274 274 273 272 272 271 271 271 271 272 272 273 274 274
309 309 309 309 309 308 308 308 308 308 307 307 307 307 307 307 307 307 307 306 306 305 304 303 302 301 300 299 299 299 299 299 299 299 300 300 300 300 300 300 300 299 299 298 297 297 296 295 294 292 291 289 288 285 283 282 281 281 282 283 284 284 283 281 280 279 278 277 276 276 276 275 275 274 273 272 271 271 271 271 272 274 275 276 276 276
309 309 309 309 309 309 309 308 308 308 308 308 308 308 308 308 307 307 307 306 305 304 303 302 301 301 300 299 299 299 300 300 300 300 301 301 301 301 301 300 300 299 299 298 298 297 296 295 294 293 291 290 288 286 284 283 283 284 285 287 286 285 284 282 281 280 279 279 279 279 278 278 277 276 275 274 273 273 274 276 277 278 279 280 280 280
309 309 309 309 309 309 309 309 308 308 308 308 308 308 308 308 308 307 307 306 305 303 302 302 301 300 300 300 300 300 301 301 302 302 302 302 302 301 301 300 300 299 299 298 298 297 296 296 294 293 292 290 289 287 286 286 287 288 289 289 288 286 285 283 283 282 282 282 282 282 281 281 280 279 278 277 277 278 279 280 281 282 283 284 284 283
310 310 310 309 309 309 309 309 309 308 308 308 308 308 308 308 308 307 306 305 304 303 302 301 301 301 301 301 301 301 302 302 302 302 302 302 302 301 301 301 300 299 299 298 298 297 297 296 295 294 292 291 290 289 288 289 290 291 292 291 289 287 286 285 285 284 284 285 285 285 285 284 284 283 282 281 281 282 282 283 284 285 286 286 286 285
310 310 310 310 309 309 309 309 309 309 309 309 309 309 308 308 307 306 305 304 303 302 301 302 302 302 301 301 301 301 302 302 302 302 302 302 301 301 301 300 300 299 299 298 298 297 297 296 295 294 293 292 291 290 290 291 293 294 293 292 290 288 287 286 286 287 287 287 288 288 288 288 287 286 284 284 284 284 284 285 286 287 288 288 287 286
310 310 310 310 309 309 309 309 309 309 309 309 309 309 308 307 306 305 304 303 302 302 302 302 303 302 302 302 301 301 301 301 302 302 301 301 300 300 300 299 299 298 298 298 297 297 296 295 295 294 294 293 292 292 292 294 295 295 294 292 290 289 288 288 288 289 289 290 291 291 291 290 288 287 286 285 285 286 287 288 289 290 290 289 288 286
310 310 310 310 310 310 310 310 310 310 309 309 309 308 307 307 306 304 304 303 302 302 303 303 303 303 302 301 301 301 300 301 301 301 301 300 299 298 298 298 298 297 297 296 296 295 295 294 294 294 293 293 292 293 294 295 296 295 294 292 290 289 289 289 290 291 292 293 293 293 292 291 289 288 287 287 287 288 289 291 292 292 291 290 287 284
311 310 310 310 310 310 310 310 310 310 309 309 308 308 307 306 305 304 303 302 302 303 304 304 303 302 301 301 300 300 300 300 301 301 300 299 298 297 297 297 296 296 295 295 294 294 294 293 293 293 293 292 292 293 294 295 295 294 293 291 290 289 290 290 292 293 294 294 294 293 292 290 289 288 288 289 290 291 293 294 294 294 292 290 286 282
311 311 311 311 311 311 311 310 310 310 309 308 308 307 306 304 303 303 303 302 302 303 303 303 303 302 301 300 300 299 300 300 301 301 299 298 296 296 296 295 295 295 294 294 293 293 293 292 292 292 292 292 292 292 294 295 295 293 292 290 290 290 290 291 293 294 294 295 294 293 291 290 289 289 290 291 293 295 296 296 296 295 292 289 285 281
311 311 311 311 311 311 311 310 310 309 308 308 307 306 304 303 303 302 302 302 303 303 303 303 302 300 299 299 299 299 299 300 300 300 299 297 295 294 294 294 294 294 293 292 292 292 292 292 291 291 291 291 291 292 293 294 294 293 291 290 290 290 291 292 293 294 295 294 294 292 291 290 290 291 292 294 296 297 298 298 297 295 292 289 285 283
312 312 311 311 311 311 310 310 309 308 307 307 306 305 304 303 302 302 302 302 303 303 303 303 302 300 299 298 297 297 298 298 299 299 298 297 295 293 293 293 293 293 292 291 291 291 291 291 290 290 290 290 290 291 293 293 293 292 291 290 290 290 291 292 293 294 294 294 293 292 291 291 291 292 294 296 298 300 300 300 299 296 293 290 288 286
312 312 312 311 311 311 310 309 308 307 306 305 304 304 303 302 302 302 302 303 303 303 303 303 302 300 299 298 296 296 296 296 297 297 297 296 294 292 291 291 291 291 291 290 290 290 290 290 289 289 289 289 290 291 292 293 293 292 291 290 290 290 291 292 293 294 294 294 293 292 291 291 292 294 296 298 300 301 302 301 300 298 296 294 292 291
312 312 312 311 311 310 310 309 308 307 305 304 304 303 302 302 302 302 302 303 303 303 303 303 302 301 299 298 296 295 295 295 295 296 296 295 293 292 291 290 290 290 290 289 289 289 289 289 289 289 289 289 290 291 292 292 292 291 290 290 290 290 291 292 293 293 294 293 293 292 291 292 293 295 297 299 301 302 303 302 301 300 299 298 297 296
312 312 311 311 310 310 309 308 307 306 305 304 303 303 302 302 302 302 302 302 303 303 303 303 302 301 299 298 296 295 294 293 293 294 294 294 293 292 291 290 290 289 289 289 288 288 288 288 288 288 288 289 289 290 291 291 291 290 290 289 289 290 291 292 293 293 294 293 292 292 291 292 293 295 297 299 301 302 303 303 302 302 301 301 300 299
312 311 311 310 310 309 309 308 306 305 305 304 304 303 303 303 303 302 302 302 302 302 302 302 302 301 299 298 296 295 293 292 292 292 293 293 293 292 292 291 290 289 289 288 287 287 287 287 287 287 287 288 288 289 290 290 290 289 289 289 289 290 290 291 292 293 293 292 291 291 291 292 293 295 297 299 301 302 303 303 303 302 302 301 300 299
312 311 311 310 310 309 308 308 306 306 305 305 304 304 303 303 303 302 302 302 302 302 302 302 301 300 299 298 297 295 294 292 292 292 292 293 293 293 292 291 290 289 288 288 286 286 286 286 285 286 286 286 287 288 288 288 288 288 288 288 288 289 290 291 292 292 292 291 290 290 290 291 292 294 296 299 301 302 302 303 302 301 301 299 299 298
311 311 310 310 310 309 308 308 307 306 305 305 304 304 304 303 303 303 302 302 302 302 301 301 301 300 299 298 297 296 295 293 292 292 292 293 293 293 292 291 290 290 289 288 286 285 285 284 284 284 284 285 285 286 286 287 287 287 287 287 288 289 290 291 291 292 291 290 290 289 289 290 292 294 296 298 300 301 302 302 301 300 299 299 298 298
311 311 310 310 310 309 309 308 307 306 305 305 304 304 304 303 303 303 302 302 302 302 302 301 301 300 299 299 298 297 296 294 293 293 293 293 293 293 292 291 291 290 290 289 287 286 285 284 284 283 283 283 284 285 285 285 285 286 286 286 287 288 289 290 291 291 290 289 288 288 288 289 291 293 295 297 299 301 301 300 300 299 298 298 298 298
311 311 311 310 310 309 309 308 307 306 305 304 304 304 303 303 303 303 302 302 302 302 301 301 300 300 299 299 298 298 297 295 294 294 294 294 293 293 292 291 291 290 290 290 289 288 287 285 284 283 283 283 283 284 284 284 284 285 285 286 286 287 288 289 290 290 289 288 287 287 287 288 290 291 294 296 298 299 300 299 299 298 298 298 298 298
311 311 311 311 310 309 308 307 307 306 305 305 304 304 303 303 303 302 302 302 301 301 301 301 300 300 299 299 298 298 297 296 295 294 294 294 295 294 293 292 291 290 290 290 290 290 288 286 285 284 284 283 283 283 283 283 284 284 284 285 285 286 287 288 289 289 288 287 286 285 285 286 288 290 293 295 297 298 299 298 298 298 297 297 297 296
312 311 311 310 310 309 308 308 307 306 305 305 304 304 304 304 303 303 302 302 302 301 301 301 301 300 300 299 299 298 297 296 295 295 295 295 296 295 294 292 291 290 290 290 291 290 290 288 286 285 284 283 283 283 283 283 283 283 283 284 284 285 286 287 288 288 287 286 284 283 283 284 286 289 292 294 296 297 298 297 297 297 297 296 295 294
312 311 311 310 310 309 309 308 307 307 306 306 305 305 304 304 304 304 303 303 302 302 302 302 301 301 300 300 300 299 299 297 296 296 296 296 296 296 295 294 292 291 290 290 290 291 291 289 287 285 284 283 283 282 282 282 282 282 283 283 284 284 285 286 287 288 287 285 283 282 281 282 284 287 291 293 295 296 296 296 296 296 296 295 294 293
312 312 311 311 310 310 309 309 308 307 307 306 306 306 305 305 305 304 304 303 303 303 303 302 302 302 301 301 300 300 299 298 297 297 296 297 297 297 296 295 294 293 291 290 290 291 292 291 289 287 285 284 283 283 282 282 282 282 282 282 283 283 284 285 287 287 286 284 282 280 279 280 282 285 289 292 294 295 296 296 296 296 296 294 293 292
312 312 311 311 311 310 310 309 309 308 308 307 307 307 306 306 306 305 305 304 304 304 303 303 303 303 303 302 302 301 300 299 298 298 298 298 298 298 298 297 296 295 293 292 291 291 291 291 290 289 287 285 284 283 282 282 282 282 282 282 282 283 283 284 286 287 286 284 282 279 278 278 280 283 287 291 293 295 296 296 296 296 295 294 293 293
312 312 312 312 311 311 310 310 309 309 309 309 308 308 308 308 307 307 306 306 305 305 304 304 304 304 304 304 303 303 301 300 300 299 299 299 299 299 299 299 298 297 295 294 293 292 291 291 290 290 289 287 285 283 282 282 282 282 282 282 281 282 282 283 285 286 286 285 282 279 277 276 278 281 286 290 293 295 296 297 297 296 295 294 294 295
313 313 313 312 312 312 311 311 310 310 310 310 310 310 309 309 308 308 308 307 307 306 306 306 305 305 305 305 304 304 303 302 301 301 301 300 300 300 300 300 299 298 297 296 295 294 293 292 291 290 289 288 286 284 283 282 282 282 281 281 281 281 282 283 284 286 286 285 283 279 277 276 277 280 285 289 293 295 297 297 297 296 294 294 295 296
314 314 314 313 313 313 312 312 312 311 311 311 311 311 311 310 310 310 309 309 309 308 308 307 307 307 306 306 305 304 304 303 303 303 303 303 302 302 302 302 301 300 299 298 297 296 295 294 292 291 289 288 287 285 284 283 282 282 281 281 280 280 281 282 284 285 286 286 283 280 277 276 276 279 284 289 293 295 297 297 296 295 294 294 296 297
315 315 315 315 314 314 313 313 313 313 313 312 312 312 312 312 311 311 311 311 310 310 310 309 309 308 307 306 306 305 305 304 305 305 305 305 305 305 305 305 304 303 302 300 299 298 297 296 294 292 290 288 287 286 285 283 282 281 281 280 280 280 280 281 283 285 287 287 285 281 278 276 276 279 284 288 292 295 296 297 296 295 294 295 297 299
317 316 316 316 316 315 315 315 314 314 314 314 314 314 313 313 313 313 312 312 312 312 312 311 311 310 309 307 307 306 306 306 306 307 307 308 307 308 308 308 307 306 304 303 301 300 299 297 296 294 291 289 287 285 284 283 283 282 281 280 280 280 280 282 283 286 287 288 286 283 279 277 277 279 284 288 291 294 296 296 295 294 294 295 297 300
318 318 318 317 317 317 316 316 316 316 316 315 315 315 315 314 314 314 313 313 313 313 313 312 312 311 310 309 308 307 307 308 308 309 309 310 310 310 310 310 309 308 307 306 304 302 300 299 297 295 293 290 287 284 282 282 282 282 281 281 281 281 281 282 284 286 288 288 287 284 280 278 278 280 284 288 291 293 294 294 294 293 294 295 297 300
320 320 319 319 319 319 318 318 318 318 317 317 316 316 315 315 315 314 314 314 314 313 313 313 312 311 310 309 309 309 309 309 310 310 311 311 312 312 311 311 311 311 310 308 307 305 303 302 300 297 295 291 288 284 281 280 280 280 281 281 282 282 283 284 286 288 289 289 287 284 281 279 279 282 285 288 291 293 293 293 292 293 293 295 297 299
321 321 321 321 321 321 321 320 320 319 319 318 317 317 316 315 315 315 314 314 314 314 313 313 312 311 310 310 309 309 310 310 311 311 312 312 313 313 313 313 313 312 312 311 309 308 307 305 303 301 298 293 289 284 281 279 278 278 279 281 282 283 284 286 287 289 291 290 288 285 283 281 282 284 286 289 291 292 292 291 291 292 293 294 296 298
323 323 323 323 323 323 322 322 322 321 320 319 318 317 316 316 315 315 315 315 314 314 314 313 312 312 311 310 310 310 310 310 311 312 312 313 314 314 315 314 314 314 313 312 311 310 309 308 306 304 300 296 290 285 281 278 277 277 278 280 282 284 285 287 289 291 292 291 289 287 285 285 285 287 288 290 291 292 291 291 291 291 292 294 295 297
325 325 325 325 325 324 324 324 323 322 321 320 319 318 317 316 316 316 315 315 314 314 313 313 312 311 311 310 310 310 310 310 311 312 312 313 314 315 315 315 315 315 314 313 313 312 311 309 308 306 302 298 292 286 281 278 277 277 278 279 281 283 285 287 290 292 293 292 291 289 288 288 289 290 292 293 293 292 291 291 291 291 292 293 295 297
327 327 327 326 326 326 325 325 324 323 321 320 319 318 317 316 316 315 315 314 313 313 312 312 311 311 310 310 309 309 310 310 310 311 312 313 314 315 316 316 316 315 315 314 313 312 312 310 309 307 304 299 294 287 282 279 278 278 278 279 281 283 285 287 290 292 293 293 292 291 291 292 293 294 295 295 295 293 292 292 292 292 293 294 295 297
329 329 329 328 328 327 326 325 324 323 321 320 319 318 317 316 315 315 314 313 312 312 311 310 310 309 309 309 309 309 309 309 310 310 311 313 314 315 315 316 316 316 315 315 314 313 312 312 310 308 305 301 295 289 284 281 279 279 280 281 283 285 286 288 290 292 293 293 294 294 295 296 297 298 298 297 296 294 293 293 293 293 294 295 296 297
332 332 331 331 330 329 327 326 325 323 322 320 319 318 317 316 315 314 313 312 311 311 310 309 309 308 308 308 308 308 308 308 309 310 311 312 313 314 315 316 316 316 316 316 315 314 313 312 311 309 307 303 297 292 287 283 281 281 281 284 286 287 286 287 289 291 293 294 295 297 298 299 300 300 300 298 296 295 294 293 293 293 294 295 296 297
336 335 334 333 332 331 329 327 326 324 322 321 319 318 317 316 315 314 313 312 311 310 310 309 308 308 307 307 307 307 307 307 308 309 310 311 313 314 315 316 316 316 316 316 316 315 314 313 312 309 307 304 301 296 291 286 283 282 283 286 288 289 288 288 288 290 292 294 296 298 299 301 301 301 301 299 297 295 294 294 294 294 295 296 297 298
340 339 337 336 334 333 331 329 328 326 324 322 320 319 317 316 315 314 313 312 311 310 310 309 309 308 307 307 307 306 306 306 307 308 309 310 312 313 314 315 316 316 316 316 316 315 314 314 312 310 307 305 303 299 292 287 284 284 284 286 288 289 289 290 291 293 295 297 298 300 301 302 303 303 302 300 298 296 295 295 294 295 296 297 299 300
343 342 340 339 337 335 333 332 329 327 325 323 321 320 318 317 316 315 314 313 312 311 310 309 309 308 308 307 307 306 306 306 306 307 307 309 310 312 313 314 315 316 316 316 315 315 314 313 312 310 308 308 306 300 292 286 284 283 283 284 286 288 290 293 295 298 300 301 301 302 303 304 304 304 304 302 300 298 297 296 296 297 299 301 302 302
345 343 342 340 338 336 335 333 331 329 327 325 323 321 320 319 317 316 315 314 312 311 310 309 309 308 308 307 307 307 306 306 306 306 307 308 310 311 312 313 314 315 315 315 314 314 313 313 312 311 311 311 310 301 288 282 281 282 282 284 286 289 293 296 299 302 303 304 305 305 306 306 306 306 306 305 304 302 301 300 300 302 303 305 306 306
345 344 342 341 339 337 335 334 332 331 329 327 325 323 321 320 319 317 316 315 313 312 311 310 309 308 308 307 307 307 306 307 307 307 308 309 310 311 312 313 313 314 314 314 313 313 313 313 312 313 313 316 316 306 285 277 277 279 283 287 290 294 297 300 302 304 305 306 307 308 308 309 310 311 311 311 310 309 307 306 306 307 308 309 310 310
343 342 341 340 338 337 336 334 333 331 330 328 326 325 323 321 320 319 317 316 315 313 312 311 310 309 308 308 307 307 307 307 307 308 309 310 311 312 312 313 314 313 313 313 312 312 312 312 312 313 317 321 323 314 290 273 272 277 284 289 293 297 300 301 303 304 305 307 308 309 311 313 315 317 319 320 319 317 314 312 312 312 313 313 313 313
342 341 340 339 338 336 335 334 333 331 330 328 327 325 323 322 321 320 319 317 316 315 314 313 312 311 310 309 308 308 308 308 308 309 310 311 312 313 314 314 315 314 313 313 312 312 311 310 310 311 315 323 329 325 305 279 271 274 280 287 294 298 300 302 303 305 306 309 310 312 315 317 321 324 326 327 327 324 322 320 319 318 317 316 315 314
Height
5574 5572 5569 5567 5565 5562 5559 5556 5554 5551 5547 5544 5541 5539 5536 5532 5528 5524 5521 5517 5513 5509 5505 5501 5496 5492 5488 5483 5479 5474 5469 5464 5460 5456 5452 5448 5444 5441 5438 5435 5432 5430 5427 5425 5423 5421 5419 5417 5415 5413 5412 5410 5409 5408 5407 5406 5406 5405 5405 5404 5404 5404 5404 5404 5404 5404 5404 5404 5404 5404 5404 5404 5404 5404 5404 5404 5404 5404 5404 5404 5404 5404 5404 5404 5404 5404
5569 5566 5563 5561 5559 5556 5553 5549 5547 5544 5541 5537 5534 5530 5527 5524 5520 5516 5512 5508 5504 5500 5496 5492 5487 5482 5477 5473 5468 5464 5459 5454 5450 5446 5442 5439 5435 5432 5430 5427 5425 5422 5420 5418 5416 5414 5412 5411 5409 5407 5407 5405 5404 5403 5402 5402 5402 5401 5401 5401 5401 5401 5401 5401 5401 5401 5400 5400 5400 5400 5400 5400 5400 5400 5400 5400 5400 5400 5400 5400 5400 5400 5400 5400 5400 5400
5564 5561 5558 5555 5553 5550 5547 5543 5540 5536 5533 5530 5527 5523 5519 5516 5512 5508 5504 5500 5496 5491 5486 5482 5477 5473 5468 5463 5458 5454 5450 5445 5441 5437 5434 5431 5428 5425 5423 5421 5418 5416 5414 5412 5410 5408 5407 5405 5404 5403 5402 5401 5400 5399 5399 5398 5398 5397 5397 5397 5397 5397 5397 5397 5397 5397 5397 5397 5397 5397 5397 5396 5396 5396 5396 5396 5396 5396 5396 5396 5396 5395 5395 5395 5395 5396
5558 5555 5552 5549 5546 5543 5540 5537 5533 5529 5525 5522 5519 5515 5512 5508 5504 5500 5496 5492 5487 5482 5477 5472 5467 5463 5459 5454 5449 5445 5441 5437 5433 5430 5427 5424 5422 5419 5417 5415 5413 5411 5409 5407 5405 5403 5402 5401 5400 5399 5398 5397 5396 5396 5395 5395 5394 5394 5394 5394 5394 5394 5394 5394 5394 5394 5394 5394 5394 5393 5393 5393 5392 5392 5392 5392 5392 5392 5392 5392 5391 5391 5391 5391 5391 5391
5552 5549 5545 5542 5539 5537 5533 5530 5526 5522 5518 5514 5511 5507 5504 5500 5495 5491 5487 5482 5478 5474 5469 5463 5458 5454 5450 5445 5441 5437 5434 5430 5427 5423 5421 5418 5416 5414 5412 5410 5408 5406 5404 5402 5401 5400 5398 5397 5396 5395 5394 5394 5393 5392 5392 5392 5391 5391 5391 5391 5392 5392 5392 5392 5391 5391 5391 5391 5390 5390 5389 5389 5389 5389 5389 5388 5388 5388 5388 5387 5387 5387 5387 5386 5386 5386
5545 5542 5539 5535 5532 5529 5526 5522 5518 5514 5510 5506 5502 5499 5496 5492 5487 5483 5478 5473 5469 5464 5460 5455 5450 5446 5442 5437 5433 5430 5427 5424 5421 5418 5416 5413 5411 5409 5407 5406 5404 5402 5400 5399 5397 5396 5395 5394 5393 5392 5391 5390 5390 5389 5389 5388 5388 5388 5388 5388 5389 5389 5389 5388 5388 5388 5387 5387 5387 5387 5386 5386 5386 5386 5386 5385 5385 5385 5384 5384 5383 5383 5382 5382 5382 5382
5538 5535 5532 5529 5525 5521 5517 5514 5511 5507 5502 5498 5494 5490 5487 5483 5479 5475 5471 5465 5460 5455 5451 5447 5442 5438 5434 5430 5427 5424 5421 5418 5416 5413 5411 5409 5407 5405 5404 5402 5400 5398 5397 5396 5394 5393 5392 5391 5390 5389 5388 5387 5387 5386 5386 5386 5386 5386 5386 5386 5386 5386 5386 5385 5385 5384 5384 5384 5384 5383 5383 5383 5383 5383 5382 5382 5382 5381 5381 5380 5380 5379 5379 5378 5378 5377
5531 5528 5524 5521 5518 5515 5510 5505 5502 5498 5495 5491 5486 5482 5478 5474 5470 5466 5462 5457 5452 5447 5442 5438 5435 5431 5427 5424 5421 5418 5416 5413 5411 5409 5407 5405 5403 5402 5400 5398 5397 5395 5394 5393 5392 5390 5389 5388 5387 5386 5385 5384 5384 5383 5383 5383 5383 5383 5383 5383 5383 5382 5382 5382 5381 5381 5381 5380 5380 5380 5380 5380 5379 5379 5378 5378 5378 5377 5377 5377 5376 5376 5375 5375 5374 5373
5525 5522 5518 5514 5510 5507 5504 5499 5493 5488 5485 5482 5478 5474 5470 5467 5462 5456 5452 5448 5445 5440 5436 5432 5428 5425 5421 5418 5416 5414 5412 5409 5407 5405 5403 5402 5400 5398 5397 5396 5394 5392 5391 5390 5388 5387 5386 5385 5384 5383 5382 5382 5381 5381 5380 5380 5380 5380 5380 5380 5380 5379 5379 5378 5378 5377 5377 5377 5377 5377 5376 5376 5375 5375 5374 5374 5373 5373 5372 5372 5372 5371 5371 5370 5369 5368
5517 5515 5512 5507 5503 5499 5496 5492 5487 5481 5476 5472 5468 5464 5460 5458 5455 5450 5444 5440 5436 5433 5429 5426 5423 5420 5417 5413 5411 5409 5408 5406 5403 5401 5400 5399 5397 5396 5394 5393 5391 5390 5388 5387 5386 5384 5383 5382 5381 5380 5379 5379 5378 5378 5377 5377 5377 5378 5377 5377 5377 5376 5375 5375 5374 5374 5374 5373 5373 5372 5372 5372 5371 5370 5370 5369 5369 5368 5368 5367 5367 5366 5365 5364 5363 5362
5511 5507 5504 5500 5496 5492 5487 5484 5479 5474 5469 5465 5460 5455 5450 5447 5445 5442 5439 5434 5430 5427 5424 5421 5418 5416 5413 5411 5407 5405 5404 5402 5401 5398 5397 5395 5394 5393 5392 5390 5388 5387 5386 5384 5383 5382 5380 5379 5378 5377 5377 5376 5376 5375 5375 5375 5375 5375 5375 5374 5373 5372 5372 5371 5371 5371 5370 5370 5369 5369 5368 5367 5367 5366 5366 5365 5365 5364 5363 5362 5362 5361 5360 5358 5357 5356
5504 5501 5497 5493 5489 5484 5480 5475 5470 5466 5461 5457 5453 5448 5442 5438 5435 5433 5432 5428 5425 5422 5420 5417 5413 5410 5409 5407 5405 5402 5401 5400 5398 5396 5394 5392 5391 5390 5388 5387 5386 5384 5383 5382 5380 5379 5377 5377 5376 5375 5374 5373 5373 5372 5372 5372 5372 5372 5372 5371 5370 5369 5368 5368 5367 5367 5367 5366 5366 5365 5364 5364 5363 5362 5362 5361 5361 5360 5359 5358 5357 5356 5355 5353 5352 5351
5497 5493 5490 5485 5481 5477 5472 5467 5462 5457 5452 5448 5444 5441 5437 5432 5428 5426 5424 5422 5419 5417 5416 5414 5411 5407 5404 5402 5401 5399 5398 5397 5396 5394 5392 5390 5388 5387 5386 5384 5383 5382 5380 5379 5377 5376 5375 5374 5373 5372 5371 5371 5370 5370 5369 5369 5369 5369 5368 5367 5367 5366 5365 5365 5364 5364 5363 5362 5362 5361 5361 5360 5359 5358 5358 5357 5356 5356 5354 5353 5352 5351 5349 5348 5347 5345
5490 5486 5482 5477 5472 5468 5463 5459 5454 5449 5444 5439 5436 5433 5430 5426 5423 5421 5419 5417 5414 5412 5412 5410 5408 5405 5401 5399 5397 5396 5395 5394 5393 5392 5390 5387 5386 5384 5383 5382 5381 5379 5378 5376 5375 5374 5372 5371 5370 5370 5369 5368 5367 5367 5367 5367 5366 5366 5365 5364 5363 5362 5362 5361 5361 5360 5360 5359 5358 5357 5357 5356 5355 5355 5354 5353 5352 5351 5350 5349 5347 5346 5344 5343 5341 5340
5483 5478 5474 5469 5464 5459 5454 5450 5446 5441 5436 5432 5429 5427 5424 5421 5417 5416 5414 5413 5411 5409 5408 5406 5404 5402 5399 5396 5394 5392 5391 5391 5390 5389 5387 5385 5383 5381 5380 5379 5378 5377 5376 5374 5372 5371 5370 5369 5368 5367 5366 5365 5365 5364 5364 5364 5363 5363 5362 5361 5360 5359 5359 5358 5357 5357 5356 5356 5355 5354 5353 5352 5352 5351 5350 5349 5348 5347 5346 5344 5343 5341 5340 5338 5337 5336
5475 5471 5466 5461 5456 5451 5446 5442 5438 5434 5430 5427 5423 5421 5418 5416 5413 5411 5410 5408 5407 5406 5404 5403 5401 5399 5396 5393 5390 5389 5388 5387 5387 5387 5385 5383 5381 5378 5377 5376 5375 5375 5373 5372 5370 5368 5367 5366 5365 5364 5364 5363 5362 5362 5361 5361 5361 5360 5359 5358 5357 5356 5356 5355 5354 5354 5353 5352 5352 5351 5350 5349 5348 5347 5347 5345 5344 5343 5342 5340 5338 5337 5335 5334 5333 5332
5467 5462 5458 5453 5448 5443 5439 5435 5431 5427 5423 5421 5418 5416 5414 5412 5410 5408 5406 5405 5403 5402 5400 5399 5398 5397 5394 5391 5387 5385 5385 5384 5384 5383 5383 5381 5378 5376 5375 5373 5372 5372 5371 5369 5367 5366 5365 5364 5363 5362 5361 5360 5359 5359 5359 5358 5358 5357 5356 5355 5354 5353 5353 5352 5351 5351 5350 5349 5348 5347 5347 5346 5345 5344 5343 5342 5340 5339 5337 5336 5334 5333 5332 5330 5330 5329
5459 5454 5450 5445 5441 5436 5432 5429 5425 5421 5417 5415 5414 5412 5410 5408 5406 5404 5403 5401 5400 5398 5397 5395 5394 5392 5391 5388 5385 5383 5382 5381 5381 5380 5380 5378 5376 5374 5372 5371 5370 5369 5368 5367 5365 5363 5362 5361 5360 5359 5358 5357 5357 5356 5356 5356 5355 5354 5353 5352 5351 5351 5350 5349 5348 5347 5347 5346 5345 5344 5343 5342 5341 5340 5339 5338 5337 5335 5334 5332 5331 5329 5328 5327 5327 5326
5452 5447 5442 5438 5434 5430 5426 5422 5419 5417 5413 5411 5409 5408 5407 5404 5402 5401 5399 5398 5396 5395 5393 5392 5390 5388 5387 5385 5382 5380 5379 5378 5377 5377 5377 5376 5374 5372 5369 5368 5367 5367 5365 5364 5362 5361 5359 5358 5357 5356 5355 5354 5353 5353 5353 5353 5352 5351 5350 5349 5348 5347 5347 5346 5345 5344 5343 5342 5342 5341 5340 5339 5338 5337 5336 5335 5333 5332 5331 5329 5328 5327 5326 5325 5324 5323
5444 5439 5435 5431 5428 5425 5420 5417 5414 5412 5410 5407 5406 5404 5403 5402 5400 5398 5396 5394 5393 5391 5390 5388 5387 5385 5383 5382 5379 5377 5376 5374 5374 5374 5374 5373 5371 5369 5367 5366 5365 5364 5363 5361 5359 5357 5357 5355 5354 5353 5352 5351 5350 5350 5350 5350 5349 5348 5347 5346 5345 5344 5344 5343 5342 5341 5340 5339 5338 5337 5337 5336 5335 5334 5332 5332 5330 5329 5327 5326 5325 5324 5323 5322 5322 5321
5437 5432 5427 5424 5422 5419 5416 5412 5409 5407 5405 5404 5402 5401 5399 5398 5396 5394 5392 5391 5389 5388 5387 5385 5383 5381 5380 5378 5376 5374 5372 5371 5371 5371 5371 5370 5369 5367 5364 5363 5362 5361 5360 5358 5356 5355 5353 5352 5351 5350 5348 5348 5347 5347 5347 5347 5346 5345 5344 5343 5342 5342 5341 5340 5339 5338 5337 5336 5335 5334 5333 5332 5332 5330 5329 5328 5327 5326 5325 5323 5322 5322 5321 5320 5319 5318
5431 5427 5422 5418 5416 5414 5412 5409 5406 5403 5401 5400 5399 5397 5396 5394 5393 5391 5389 5388 5386 5385 5383 5381 5379 5378 5376 5374 5372 5370 5368 5367 5367 5367 5367 5367 5366 5364 5361 5360 5359 5358 5357 5355 5353 5352 5350 5349 5347 5346 5345 5345 5344 5344 5344 5343 5343 5342 5341 5340 5339 5338 5337 5337 5336 5335 5334 5333 5332 5331 5330 5329 5328 5327 5327 5325 5324 5323 5322 5321 5320 5319 5318 5317 5317 5316
5424 5421 5417 5414 5411 5409 5407 5405 5402 5400 5398 5397 5395 5394 5392 5391 5390 5387 5386 5384 5382 5381 5379 5378 5376 5374 5372 5370 5368 5366 5365 5363 5363 5363 5363 5363 5362 5361 5358 5357 5356 5355 5354 5352 5350 5349 5347 5346 5344 5343 5342 5342 5341 5341 5341 5340 5339 5339 5338 5337 5336 5335 5334 5333 5332 5332 5330 5329 5329 5328 5327 5326 5325 5324 5323 5322 5321 5320 5319 5318 5317 5316 5315 5314 5314 5313
5417 5415 5412 5409 5407 5405 5402 5401 5399 5397 5394 5393 5392 5390 5389 5388 5386 5384 5382 5379 5378 5377 5375 5374 5372 5371 5369 5367 5365 5362 5361 5359 5358 5359 5359 5359 5359 5357 5355 5354 5352 5352 5351 5349 5347 5345 5344 5343 5341 5340 5339 5338 5338 5338 5337 5337 5336 5336 5335 5334 5333 5332 5331 5330 5329 5328 5327 5326 5325 5325 5324 5323 5322 5321 5320 5319 5318 5317 5316 5315 5314 5313 5312 5312 5311 5311
5412 5410 5407 5405 5403 5401 5399 5397 5395 5393 5391 5390 5389 5387 5385 5383 5381 5379 5377 5375 5373 5372 5371 5370 5368 5367 5365 5363 5362 5359 5357 5355 5354 5354 5355 5355 5355 5354 5352 5350 5349 5348 5347 5345 5343 5342 5341 5339 5338 5337 5336 5335 5335 5334 5334 5333 5333 5332 5332 5331 5330 5329 5328 5327 5326 5325 5324 5323 5322 5321 5321 5320 5319 5318 5317 5316 5315 5314 5313 5312 5311 5311 5310 5309 5308 5307
5408 5406 5403 5402 5399 5397 5395 5393 5391 5389 5387 5386 5384 5382 5380 5378 5377 5375 5373 5371 5369 5368 5367 5366 5364 5363 5362 5360 5358 5356 5353 5352 5351 5351 5351 5351 5351 5350 5348 5347 5345 5344 5343 5342 5340 5338 5337 5336 5334 5333 5332 5332 5331 5331 5330 5330 5329 5329 5328 5327 5327 5326 5325 5324 5323 5322 5321 5320 5319 5318 5317 5317 5316 5315 5314 5313 5312 5311 5310 5309 5308 5307 5307 5306 5305 5305
5404 5402 5400 5398 5396 5394 5392 5390 5387 5385 5383 5381 5379 5377 5376 5375 5373 5371 5369 5367 5366 5364 5363 5362 5361 5359 5358 5357 5355 5352 5350 5348 5347 5347 5347 5347 5346 5345 5344 5343 5342 5341 5340 5339 5337 5335 5333 5332 5331 5330 5329 5328 5327 5327 5327 5326 5326 5325 5325 5324 5323 5322 5322 5321 5320 5319 5318 5317 5316 5315 5314 5314 5313 5312 5311 5310 5309 5308 5307 5307 5306 5305 5304 5303 5303 5302
5400 5398 5396 5394 5392 5390 5388 5386 5383 5381 5379 5377 5375 5373 5372 5370 5369 5367 5365 5364 5362 5361 5359 5358 5357 5356 5354 5353 5352 5349 5347 5345 5344 5343 5343 5343 5342 5341 5340 5339 5338 5337 5336 5335 5334 5332 5330 5328 5327 5326 5326 5325 5324 5323 5322 5322 5322 5322 5321 5320 5320 5319 5318 5317 5317 5316 5315 5314 5313 5312 5311 5311 5310 5309 5308 5307 5307 5305 5305 5304 5303 5302 5301 5301 5300 5299
5397 5395 5392 5390 5388 5386 5384 5382 5379 5377 5375 5373 5371 5369 5367 5366 5365 5363 5361 5360 5358 5357 5355 5354 5353 5352 5351 5350 5348 5346 5343 5341 5340 5340 5339 5339 5338 5337 5336 5335 5334 5333 5332 5332 5331 5329 5327 5324 5323 5322 5322 5321 5320 5319 5319 5318 5318 5318 5317 5317 5316 5315 5315 5314 5313 5312 5312 5311 5310 5309 5308 5307 5307 5306 5305 5304 5303 5302 5302 5301 5300 5299 5298 5297 5297 5296
5393 5391 5388 5386 5384 5382 5380 5377 5375 5373 5371 5369 5367 5365 5363 5362 5361 5359 5357 5356 5355 5353 5352 5350 5349 5348 5347 5346 5345 5343 5341 5338 5337 5336 5336 5335 5335 5333 5332 5331 5330 5329 5328 5327 5327 5327 5324 5321 5319 5318 5318 5317 5317 5316 5315 5314 5314 5314 5313 5313 5312 5312 5311 5310 5310 5309 5308 5307 5307 5306 5305 5305 5304 5303 5302 5302 5301 5300 5299 5298 5297 5296 5295 5294 5293 5292
5390 5388 5385 5383 5380 5378 5376 5374 5372 5370 5367 5366 5364 5362 5360 5358 5357 5355 5354 5352 5351 5350 5348 5347 5346 5344 5343 5342 5341 5340 5337 5335 5333 5332 5332 5332 5331 5330 5329 5328 5326 5325 5324 5323 5323 5323 5322 5319 5317 5315 5314 5313 5312 5312 5311 5311 5310 5310 5310 5309 5309 5308 5307 5307 5306 5306 5305 5304 5304 5303 5302 5302 5301 5301 5300 5299 5298 5297 5296 5295 5294 5293 5292 5291 5290 5289
5388 5385 5382 5380 5377 5375 5373 5371 5368 5366 5364 5362 5360 5358 5357 5355 5353 5352 5350 5349 5348 5347 5345 5344 5342 5341 5340 5339 5337 5336 5334 5332 5331 5329 5329 5328 5328 5327 5326 5324 5323 5322 5321 5320 5319 5319 5318 5317 5315 5312 5310 5309 5308 5308 5307 5307 5307 5306 5306 5306 5305 5304 5304 5303 5303 5302 5302 5301 5300 5300 5299 5299 5298 5297 5297 5296 5295 5294 5293 5292 5291 5290 5288 5288 5287 5286
5385 5382 5380 5377 5375 5372 5370 5368 5366 5363 5361 5359 5357 5356 5354 5352 5350 5349 5347 5346 5344 5343 5342 5341 5340 5338 5337 5336 5334 5332 5331 5329 5327 5326 5326 5325 5324 5324 5323 5321 5320 5318 5317 5317 5316 5315 5314 5313 5312 5310 5308 5306 5305 5304 5303 5303 5303 5302 5302 5302 5302 5301 5301 5300 5300 5299 5298 5298 5297 5297 5296 5295 5295 5295 5294 5293 5292 5291 5290 5289 5287 5286 5285 5284 5283 5283
5382 5380 5377 5375 5372 5370 5367 5365 5362 5360 5358 5357 5355 5353 5351 5349 5347 5346 5344 5343 5342 5340 5339 5338 5337 5335 5334 5333 5332 5330 5328 5326 5324 5323 5322 5322 5321 5320 5319 5318 5317 5315 5314 5313 5312 5311 5311 5310 5309 5307 5306 5304 5302 5301 5300 5299 5299 5299 5298 5298 5298 5298 5297 5297 5296 5296 5295 5295 5294 5293 5292 5292 5292 5292 5291 5290 5289 5288 5287 5286 5284 5283 5282 5281 5280 5279
5380 5377 5375 5372 5370 5367 5364 5362 5360 5358 5356 5354 5352 5350 5348 5347 5345 5344 5342 5341 5339 5337 5336 5335 5334 5332 5331 5330 5329 5327 5326 5324 5322 5320 5319 5318 5317 5317 5316 5315 5313 5312 5311 5310 5309 5308 5307 5307 5306 5304 5303 5302 5300 5298 5297 5296 5295 5295 5295 5295 5295 5295 5294 5294 5293 5293 5292 5292 5291 5290 5289 5289 5289 5288 5288 5287 5286 5285 5284 5282 5281 5279 5278 5277 5276 5275
5377 5375 5372 5370 5367 5365 5362 5360 5357 5355 5353 5351 5350 5348 5346 5345 5343 5342 5340 5338 5337 5335 5334 5332 5331 5329 5328 5327 5326 5324 5323 5322 5320 5318 5316 5315 5314 5314 5313 5311 5310 5309 5307 5306 5306 5305 5304 5303 5302 5302 5300 5299 5297 5296 5294 5292 5292 5292 5292 5292 5291 5291 5291 5291 5290 5290 5289 5289 5288 5287 5287 5286 5286 5285 5285 5284 5283 5282 5281 5279 5278 5276 5275 5274 5272 5272
5374 5372 5369 5367 5365 5362 5360 5357 5355 5353 5351 5349 5347 5346 5344 5343 5341 5339 5338 5336 5335 5333 5332 5330 5328 5327 5325 5323 5322 5321 5320 5319 5317 5316 5314 5312 5312 5311 5310 5308 5307 5306 5304 5303 5302 5301 5301 5300 5299 5298 5297 5296 5295 5293 5292 5290 5289 5289 5288 5288 5288 5288 5288 5287 5287 5287 5286 5286 5285 5284 5284 5283 5283 5282 5282 5281 5280 5279 5278 5276 5275 5273 5272 5271 5269 5268
5372 5369 5367 5365 5362 5360 5357 5355 5353 5351 5349 5347 5346 5344 5342 5341 5339 5337 5336 5334 5333 5331 5330 5328 5326 5324 5322 5321 5319 5318 5317 5316 5314 5313 5312 5310 5309 5308 5307 5306 5304 5303 5302 5300 5298 5297 5297 5296 5296 5295 5294 5293 5292 5291 5290 5288 5287 5286 5286 5286 5285 5285 5284 5284 5284 5284 5283 5283 5282 5282 5281 5281 5280 5280 5279 5278 5277 5276 5275 5273 5272 5270 5269 5267 5267 5265
5369 5367 5364 5362 5360 5358 5356 5353 5352 5349 5347 5346 5344 5342 5341 5339 5337 5336 5334 5332 5331 5329 5328 5326 5324 5322 5320 5318 5317 5315 5314 5312 5311 5310 5309 5307 5306 5305 5304 5303 5302 5300 5299 5297 5296 5295 5294 5293 5292 5292 5291 5290 5289 5288 5287 5286 5285 5284 5284 5283 5283 5282 5282 5281 5281 5281 5281 5280 5280 5279 5279 5278 5278 5277 5277 5276 5275 5273 5272 5271 5269 5267 5266 5265 5264 5263
5367 5365 5362 5360 5358 5356 5353 5352 5349 5347 5346 5344 5342 5340 5339 5337 5335 5334 5332 5330 5329 5327 5326 5324 5322 5320 5318 5316 5314 5312 5311 5310 5308 5307 5306 5305 5303 5302 5301 5300 5299 5297 5296 5295 5293 5292 5291 5289 5289 5288 5287 5287 5287 5286 5285 5283 5282 5282 5282 5282 5281 5280 5279 5278 5278 5278 5278 5278 5277 5277 5277 5276 5276 5275 5274 5273 5272 5271 5269 5268 5267 5265 5264 5262 5262 5261
5365 5362 5360 5358 5356 5353 5352 5349 5347 5346 5344 5342 5340 5338 5337 5335 5334 5332 5330 5328 5327 5325 5323 5322 5320 5318 5316 5314 5312 5310 5308 5307 5306 5305 5303 5302 5301 5300 5298 5297 5296 5294 5293 5292 5291 5290 5288 5287 5286 5285 5284 5284 5283 5283 5282 5281 5280 5280 5280 5279 5279 5278 5277 5276 5276 5275 5275 5275 5275 5275 5274 5274 5273 5272 5272 5270 5269 5267 5266 5265 5264 5262 5261 5260 5259 5258
5363 5361 5358 5356 5354 5352 5349 5347 5346 5344 5342 5340 5338 5337 5335 5333 5332 5330 5328 5327 5325 5323 5322 5320 5318 5317 5315 5312 5310 5308 5306 5304 5303 5302 5301 5300 5298 5297 5296 5294 5293 5292 5291 5290 5288 5287 5286 5284 5283 5282 5281 5281 5281 5280 5279 5278 5278 5277 5277 5277 5277 5276 5275 5274 5273 5273 5273 5273 5273 5272 5272 5272 5271 5270 5269 5267 5266 5264 5263 5262 5260 5259 5258 5257 5256 5255
5362 5359 5357 5354 5352 5350 5348 5346 5344 5342 5340 5338 5336 5334 5332 5331 5329 5328 5327 5325 5323 5322 5320 5318 5317 5315 5313 5312 5309 5307 5304 5302 5301 5299 5298 5297 5296 5295 5293 5292 5290 5289 5288 5287 5286 5284 5283 5282 5281 5279 5279 5278 5278 5277 5277 5276 5276 5275 5275 5275 5274 5274 5273 5272 5271 5271 5271 5271 5270 5270 5269 5269 5268 5267 5266 5265 5263 5262 5260 5259 5257 5256 5255 5254 5252 5252
5360 5357 5355 5352 5350 5348 5346 5344 5342 5340 5338 5336 5334 5332 5330 5328 5327 5326 5324 5322 5321 5319 5317 5316 5314 5313 5311 5310 5308 5306 5303 5301 5299 5297 5296 5294 5293 5292 5291 5289 5288 5287 5285 5284 5283 5282 5281 5280 5278 5277 5277 5276 5276 5275 5275 5274 5274 5273 5272 5272 5272 5272 5272 5271 5270 5270 5269 5269 5268 5267 5267 5266 5266 5265 5264 5262 5261 5259 5258 5256 5255 5253 5252 5251 5250 5248
5358 5356 5353 5351 5349 5347 5344 5342 5340 5338 5336 5334 5332 5330 5328 5326 5325 5323 5322 5320 5318 5317 5315 5313 5312 5310 5309 5307 5306 5304 5302 5300 5298 5296 5294 5292 5291 5290 5288 5287 5286 5284 5283 5282 5280 5279 5278 5277 5276 5275 5275 5274 5273 5273 5272 5272 5272 5271 5271 5270 5270 5270 5270 5270 5269 5269 5268 5267 5267 5266 5265 5264 5263 5262 5262 5260 5259 5257 5255 5253 5252 5251 5249 5248 5247 5245
5357 5354 5352 5350 5347 5345 5343 5341 5338 5336 5334 5332 5330 5328 5326 5324 5322 5320 5319 5317 5316 5314 5312 5311 5309 5307 5306 5304 5303 5302 5301 5299 5297 5295 5293 5291 5289 5288 5286 5285 5283 5282 5281 5279 5278 5277 5276 5274 5273 5273 5272 5272 5272 5271 5270 5270 5270 5269 5269 5269 5268 5268 5268 5268 5267 5267 5267 5266 5265 5264 5263 5262 5261 5260 5259 5257 5256 5255 5253 5251 5249 5248 5247 5246 5244 5243
5356 5353 5351 5348 5346 5344 5341 5339 5337 5334 5332 5330 5328 5326 5323 5322 5320 5318 5316 5315 5313 5311 5310 5308 5306 5305 5303 5302 5300 5299 5298 5297 5295 5294 5292 5290 5289 5287 5285 5283 5282 5280 5279 5277 5276 5274 5273 5272 5271 5271 5270 5270 5270 5269 5268 5268 5268 5267 5267 5267 5267 5267 5266 5266 5266 5265 5265 5264 5263 5262 5261 5260 5259 5257 5256 5255 5254 5252 5250 5249 5247 5246 5245 5243 5242 5241
5355 5352 5350 5347 5345 5342 5340 5337 5335 5333 5330 5328 5326 5323 5321 5319 5317 5315 5314 5312 5310 5308 5307 5305 5303 5302 5300 5299 5297 5296 5295 5294 5292 5292 5290 5289 5287 5286 5284 5282 5281 5279 5277 5276 5274 5273 5271 5270 5269 5268 5268 5268 5268 5268 5267 5267 5266 5266 5266 5266 5266 5265 5265 5264 5264 5263 5262 5262 5261 5260 5259 5257 5256 5255 5254 5253 5252 5250 5248 5247 5245 5243 5242 5241 5240 5239
5353 5351 5348 5346 5343 5341 5338 5336 5334 5331 5329 5326 5324 5322 5319 5317 5315 5313 5311 5309 5307 5306 5304 5302 5301 5299 5298 5296 5295 5294 5292 5291 5290 5289 5288 5287 5286 5284 5283 5281 5280 5278 5277 5275 5273 5272 5270 5269 5267 5267 5267 5267 5267 5267 5266 5265 5265 5265 5265 5265 5264 5264 5263 5263 5262 5262 5261 5260 5259 5257 5257 5256 5254 5253 5252 5251 5249 5248 5247 5245 5243 5242 5240 5239 5238 5237
5352 5350 5347 5345 5342 5340 5337 5335 5332 5330 5327 5325 5322 5320 5317 5315 5312 5310 5308 5307 5305 5303 5301 5299 5298 5297 5295 5294 5292 5291 5290 5289 5288 5287 5286 5285 5283 5282 5281 5280 5278 5277 5276 5274 5272 5271 5269 5268 5266 5265 5265 5265 5265 5265 5265 5264 5264 5264 5263 5263 5263 5262 5262 5262 5261 5260 5259 5258 5257 5256 5255 5253 5252 5251 5250 5249 5248 5247 5245 5243 5241 5240 5238 5237 5236 5234
5351 5349 5346 5344 5341 5338 5336 5333 5331 5328 5325 5323 5320 5318 5315 5313 5311 5308 5306 5304 5302 5300 5298 5297 5295 5294 5292 5291 5290 5289 5287 5286 5285 5284 5283 5282 5282 5280 5279 5277 5276 5275 5274 5272 5271 5270 5268 5267 5266 5264 5263 5263 5264 5264 5264 5264 5263 5263 5262 5262 5262 5261 5261 5260 5259 5258 5257 5256 5255 5254 5253 5252 5250 5249 5248 5247 5246 5245 5243 5242 5240 5238 5237 5235 5233 5232